Showing default

IRIDE-MS1-EAG2-10, 68451

Orbit data source: Space-Track

IRIDE-MS1-EAG2-10, 68451 is an Italian payload satellite in SSO that was launched on Mon, 30 Mar 2026 UTC via an FALCON 9 launch vehicle from the Air Force Western Test Range (AFWTR). Payload-class satellites include a variety of spacecraft equipped with specific instruments for various scientific and technological missions. These include communications satellites like Starlink; space stations such as the ISS; scientific satellites like the Hubble; Earth observation satellites from companies like Planet Labs, Umbra, and HawkEye 360; GPS; miniature CubeSats for education and research; and military/defense satellites.

Loading next visibility...
Identifier
68451, 2026-067AM
Orbit
SSO
Country
Flag of ITIT
Related business
Manufacturer
OHB-I
Mission
Operational spacecraft
Bus & Motor
EAGLET, Unknown motor
Mass
25 kg wet, 25 kg dry
Launch date (UTC)
2026-03-30 (3 months ago)
Launch vehicle
FALCON 9
Launch site
Air Force Western Test Range (AFWTR)
Object type
Payload
Rocket body
Debris
Shape & HBR
Unknown shape, 1.0 m
Radar Cross Section
Medium (>0.1 m² and <1 m²)

Expand to show TLE details & history
Last TLE update: 2 days ago

TLE from 2 days ago
0 IRIDE-MS1-EAG2-10
1 68451U 26067AM  26171.35216389  .00006566  00000-0  31741-3 0  9991
2 68451  97.4503 129.7731 0002709  63.9393 296.2120 15.18949338 12427
Epoch: 2026-06-20T08:27Z
TLE epoch observation values (Epoch: 2026-06-20T08:27:06.960Z)
Latitude
-0°
Longitude
94.42608°
Altitude
511.278 km
Speed
7.609 km/s
True Right ascension
08h 39m 05s
True Declination
0° 00' 00"
Sunlit
Object was in daylight at epoch
Visualization orbit readout
Latitude
Unknown
Longitude
Unknown
Altitude
Unknown
Speed
Unknown
Apparent Right ascension
Unknown
Apparent Declination
Unknown
Sunlit
N/A
Visualization observer readout
Local Sidereal Time
15:13:40
Azimuth
Unknown
Elevation
Unknown
Doppler factor
Unknown
Orbital elements
Apogee altitude
507.849 km
Perigee altitude
504.119 km
Semi-major axis
6,884.121 km
Eccentricity
0.00027
Inclination
97.4503°
RAAN
129.7731°
Arg. of periapsis
63.9393°
True anomaly
296.18415°
Mean anomaly
296.212°
Eccentric anomaly
296.19807°
Mean motion
3.79988 °/min
Orbital period
94.74 mins
BSTAR
0.00031741
Loading maneuver chart data...
Computing Atmospheric mass density...
Loading historical data...
Loading historical data...
Loading historical data...
Loading historical data...
Loading historical data...
Loading historical data...
Loading historical data...

Documentation

Showing up to 5 results
|